Rhode Island Logo

Providence, RI Single Family Real Estate Listings

255 Total Real Estate Listings * Click on table heading to sort
Date Posted Property Type Style Address Price Living Area Lot Size Price/Sq Ft.
2019-10-21 Single Family Ranch 110 Hilary Dr Providence, RI 02908 $379,900 1,962 sq. ft. 7,841 sq. ft. $194
2019-10-19 Single Family Bungalow 36 Glenbridge Av Providence, RI 02909 $219,900 1,693 sq. ft. 5,227 sq. ft. $130
2019-10-19 Single Family Colonial 122 Cass St Providence, RI 02905 $200,000 1,846 sq. ft. 4,356 sq. ft. $108
2019-10-18 Single Family Colonial 376 Slater Av Providence, RI 02906 $659,000 2,657 sq. ft. 6,098 sq. ft. $248
2019-10-18 Single Family Colonial 96 Home Av Providence, RI 02908 $195,000 1,572 sq. ft. 6,534 sq. ft. $124
2019-10-18 Single Family Colonial 145 Dante St Providence, RI 02908 $185,500 1,428 sq. ft. 4,356 sq. ft. $130
2019-10-17 Single Family Bungalow; Cape Cod 89 Bradley St Providence, RI 02908 $249,900 1,392 sq. ft. 3,485 sq. ft. $180
2019-10-17 Single Family 67 Marion Ave North Av Providence, RI 02905 $220,000 1,550 sq. ft. 3,049 sq. ft. $142
2019-10-16 Single Family Cottage; Historic 3 Ringgold St Providence, RI 02903 $339,000 1,474 sq. ft. 3,485 sq. ft. $230
2019-10-15 Single Family Colonial 26 Dunford St Providence, RI 02909 $179,900 1,495 sq. ft. 2,178 sq. ft. $120
2019-10-15 Single Family Raised Ranch 73 Mowry St Providence, RI 02908 $225,000 928 sq. ft. 2,614 sq. ft. $242
2019-10-15 Single Family Ranch 227 Wallace St Providence, RI 02909 $209,900 1,040 sq. ft. 4,792 sq. ft. $202
2019-10-15 Single Family Bungalow 547 Mount Pleasant Av Providence, RI 02908 $249,900 1,383 sq. ft. 3,920 sq. ft. $181
2019-10-15 Single Family 454 Union Av Providence, RI 02909 $214,900 1,162 sq. ft. 6,098 sq. ft. $185
2019-10-15 Single Family 8 Betteridge Ct Providence, RI 02909 $199,900 1,210 sq. ft. 2,178 sq. ft. $165
2019-10-15 Single Family Cape Cod 270 Laurel Hill Av Providence, RI 02909 $219,000 1,078 sq. ft. 7,841 sq. ft. $203
2019-10-15 Single Family Colonial 98 Sherwood St Providence, RI 02908 $215,000 1,339 sq. ft. 6,534 sq. ft. $161
2019-10-14 Single Family Cape Cod 10 Whitehall St Providence, RI 02909 $185,000 864 sq. ft. 2,178 sq. ft. $214
2019-10-14 Single Family Colonial 125 Reservoir Av Providence, RI 02907 $209,900 1,347 sq. ft. 3,049 sq. ft. $156
2019-10-11 Single Family Ranch 63 Congress Av Providence, RI 02907 $219,900 1,530 sq. ft. 4,792 sq. ft. $144
2019-10-11 Single Family Cape Cod; Colonial 70 Potters Av Providence, RI 02905 $65,000 1,210 sq. ft. 3,049 sq. ft. $54
2019-10-11 Single Family Colonial 62 Rosedale St Providence, RI 02909 $224,900 1,500 sq. ft. 4,792 sq. ft. $150
2019-10-10 Single Family Cape Cod 44 Texas Av Providence, RI 02904 $238,000 1,380 sq. ft. 6,534 sq. ft. $172
2019-10-10 Single Family 45 Mink Rd Providence, RI 02908 $285,000 1,944 sq. ft. 7,841 sq. ft. $147
2019-10-10 Single Family Raised Ranch 12 Ortoleva Dr Providence, RI 02909 $248,900 2,304 sq. ft. 3,049 sq. ft. $108
2019-10-09 Single Family Raised Ranch 75 Thurston St Providence, RI 02907 $239,900 1,040 sq. ft. 7,405 sq. ft. $231
2019-10-09 Single Family Ranch 104 Lubec St Providence, RI 02904 $199,900 980 sq. ft. 3,049 sq. ft. $204
2019-10-09 Single Family Ranch 26 Gloucester St Providence, RI 02908 $220,000 1,068 sq. ft. 3,920 sq. ft. $206
2019-10-09 Single Family Cape Cod 557 Academy Av Providence, RI 02908 $154,900 1,371 sq. ft. 7,405 sq. ft. $113
2019-10-08 Single Family Cape Cod 832 Douglas Av Providence, RI 02908 $160,000 1,006 sq. ft. 6,534 sq. ft. $159
2019-10-07 Single Family Victorian 212 Webster Av Providence, RI 02909 $279,900 2,540 sq. ft. 6,970 sq. ft. $110
2019-10-07 Single Family Colonial 223 Warrington St Providence, RI 02907 $259,900 2,000 sq. ft. 5,227 sq. ft. $130
2019-10-05 Single Family Colonial 40 Colonial Rd Providence, RI 02906 $599,000 2,200 sq. ft. 9,583 sq. ft. $272
2019-10-04 Single Family Colonial 191 Rankin Av Providence, RI 02908 $339,900 1,764 sq. ft. 10,019 sq. ft. $193
2019-10-04 Single Family Colonial 39 Mystic St Providence, RI 02905 $189,000 987 sq. ft. 3,920 sq. ft. $191
2019-10-04 Single Family Cape Cod 92 Erie St Providence, RI 02908 $249,900 1,700 sq. ft. 4,792 sq. ft. $147
2019-10-03 Single Family Bungalow; Cape Cod 3 Lark St Providence, RI 02909 $224,875 1,566 sq. ft. 7,405 sq. ft. $144
2019-10-03 Single Family Colonial 106 Cathedral Av Providence, RI 02908 $349,000 1,840 sq. ft. 4,792 sq. ft. $190
2019-10-03 Single Family Colonial; Cottage 19 Hammond St Providence, RI 02909 $395,000 1,484 sq. ft. 2,614 sq. ft. $266
2019-10-02 Single Family Ranch 140 Kimball St Providence, RI 02908 $299,900 1,514 sq. ft. 6,534 sq. ft. $198
2019-10-02 Single Family Ranch 133 Clematis St Providence, RI 02908 $209,000 1,403 sq. ft. 5,663 sq. ft. $149
2019-10-02 Single Family Ranch 47 Dover St Providence, RI 02908 $210,000 1,076 sq. ft. 6,970 sq. ft. $195
2019-10-02 Single Family Colonial 48 Gilmore St Providence, RI 02907 $189,900 1,100 sq. ft. 2,178 sq. ft. $173
2019-10-02 Single Family Ranch 76 Salina St Providence, RI 02908 $199,900 928 sq. ft. 3,485 sq. ft. $215
2019-10-01 Single Family Ranch 106 Seamans St Providence, RI 02908 $199,000 984 sq. ft. 4,356 sq. ft. $202
2019-09-30 Single Family Ranch 100 Eliza St Providence, RI 02909 $195,000 1,008 sq. ft. 3,049 sq. ft. $193
2019-09-30 Single Family Cottage 104 Gallup St Providence, RI 02905 $179,000 923 sq. ft. 4,356 sq. ft. $194
2019-09-30 Single Family 45 Yale Av Providence, RI 02908 $150,000 984 sq. ft. 1,307 sq. ft. $152
2019-09-30 Single Family Ranch 147 Leah St Providence, RI 02909 $234,900 1,006 sq. ft. 3,920 sq. ft. $234
2019-09-29 Single Family Ranch 38 Meridian St Providence, RI 02908 $188,500 983 sq. ft. 3,485 sq. ft. $192
2019-09-29 Single Family Contemporary; Raised Ranch 336 Admiral St Providence, RI 02904 $210,900 2,112 sq. ft. 3,049 sq. ft. $100
2019-09-29 Single Family Cape Cod 142 Stanwood St Providence, RI 02907 $130,000 760 sq. ft. 3,049 sq. ft. $171
2019-09-29 Single Family Cape Cod 275 Nelson St Providence, RI 02908 $259,000 1,385 sq. ft. 4,792 sq. ft. $187
2019-09-27 Single Family Bungalow 16 What Cheer Av Providence, RI 02909 $179,900 1,308 sq. ft. 2,614 sq. ft. $138
2019-09-27 Single Family Colonial 39 Carr St Providence, RI 02905 $209,900 1,495 sq. ft. 3,049 sq. ft. $140
2019-09-27 Single Family Cape Cod 1029 Atwells Av Providence, RI 02909 $99,900 1,429 sq. ft. 3,049 sq. ft. $70
2019-09-27 Single Family Cape Cod 114 Lynch St Providence, RI 02908 $169,900 1,150 sq. ft. 3,049 sq. ft. $148
2019-09-26 Single Family Bungalow 148 Canton St Providence, RI 02908 $179,900 1,088 sq. ft. 3,920 sq. ft. $165
2019-09-26 Single Family Colonial 185 Montgomery Av Providence, RI 02905 $199,900 1,338 sq. ft. 4,792 sq. ft. $149
2019-09-26 Single Family Bungalow 307 - Swan Swan St Providence, RI 02905 $195,000 1 sq. ft. 3,049 sq. ft. $195,000
2019-09-26 Single Family Colonial 106 Hendrick St Providence, RI 02908 $134,900 800 sq. ft. 3,049 sq. ft. $169
2019-09-26 Single Family Cottage; Historic 43 Oak St Providence, RI 02909 $335,000 1,016 sq. ft. 2,178 sq. ft. $330
2019-09-25 Single Family Colonial 71 Lowell Av Providence, RI 02909 $175,000 1,190 sq. ft. 3,920 sq. ft. $147
2019-09-25 Single Family Colonial 49 Trinity Pkwy Providence, RI 02908 $389,900 2,667 sq. ft. 7,405 sq. ft. $146
2019-09-25 Single Family Colonial 14 Audubon Av Providence, RI 02908 $289,900 1,641 sq. ft. 5,227 sq. ft. $177
2019-09-25 Single Family Colonial 212 Gallatin St Providence, RI 02907 $229,900 1,916 sq. ft. 4,792 sq. ft. $120
2019-09-25 Single Family Bungalow 11 Metropolitan Rd Providence, RI 02908 $264,900 1,823 sq. ft. 3,920 sq. ft. $145
2019-09-25 Single Family Bungalow; Cape Cod 27 Texas Av Providence, RI 02904 $250,000 1,086 sq. ft. 5,227 sq. ft. $230
2019-09-24 Single Family Colonial 110 Baxter St Providence, RI 02905 $169,900 1,408 sq. ft. 2,178 sq. ft. $121
2019-09-23 Single Family Cape Cod 56 Henrietta St Providence, RI 02904 $179,900 1,005 sq. ft. 3,920 sq. ft. $179
2019-09-23 Single Family 10 Gordon Av Providence, RI 02905 $115,000 914 sq. ft. 1,307 sq. ft. $126
2019-09-23 Single Family Cottage; Historic 130 Willow St Providence, RI 02909 $364,900 1,408 sq. ft. 2,614 sq. ft. $259
2019-09-23 Single Family Historic 156 Modena Av Providence, RI 02908 $299,900 1,400 sq. ft. 3,920 sq. ft. $214
2019-09-23 Single Family Bungalow 741 River Av Providence, RI 02908 $279,900 1,900 sq. ft. 7,405 sq. ft. $147
2019-09-22 Single Family Colonial 17 Middleton St Providence, RI 02909 $117,000 1,154 sq. ft. 3,920 sq. ft. $101
2019-09-22 Single Family Colonial 267 California Av Providence, RI 02905 $285,000 1,916 sq. ft. 3,049 sq. ft. $149
2019-09-20 Single Family Cape Cod 29 Rowan St Providence, RI 02908 $209,000 1,413 sq. ft. 3,049 sq. ft. $148
2019-09-19 Single Family Colonial 39 Osborn St Providence, RI 02908 $219,900 1,171 sq. ft. 1,742 sq. ft. $188
2019-09-19 Single Family Colonial 38 Touro St Providence, RI 02904 $149,900 995 sq. ft. 2,614 sq. ft. $151
2019-09-19 Single Family Colonial 50 Cactus St Providence, RI 02905 $229,900 1,356 sq. ft. 3,049 sq. ft. $170
2019-09-19 Single Family Raised Ranch 50 Sedan St Providence, RI 02904 $260,000 1,008 sq. ft. 3,049 sq. ft. $258
2019-09-18 Single Family Colonial 161 Gentian Av Providence, RI 02908 $410,000 2,394 sq. ft. 6,970 sq. ft. $171
2019-09-18 Single Family Cape Cod 114 Hazael St Providence, RI 02908 $199,900 1,927 sq. ft. 6,098 sq. ft. $104
2019-09-18 Single Family Ranch 100 Mink Rd Providence, RI 02908 $199,900 1,078 sq. ft. 2,178 sq. ft. $185
2019-09-18 Single Family Colonial 176 Massachusetts Av Providence, RI 02905 $189,900 1,251 sq. ft. 3,049 sq. ft. $152
2019-09-18 Single Family Colonial 303 Potters Av Providence, RI 02905 $204,900 1,669 sq. ft. 3,920 sq. ft. $123
2019-09-17 Single Family Cottage 233 Cole Av Providence, RI 02906 $649,000 1,560 sq. ft. 3,049 sq. ft. $416
2019-09-17 Single Family Colonial; Contemporary 91 Niagara St Providence, RI 02907 $214,900 1,306 sq. ft. 3,920 sq. ft. $165
2019-09-17 Single Family Colonial 111 Glover St Providence, RI 02908 $249,900 1,912 sq. ft. 3,920 sq. ft. $131
2019-09-17 Single Family Bungalow 161 Lynch St Providence, RI 02908 $199,900 1,344 sq. ft. 3,920 sq. ft. $149
2019-09-17 Single Family Ranch 96 Messer St Providence, RI 02909 $329,000 936 sq. ft. 2,614 sq. ft. $352
2019-09-16 Single Family Colonial 51 Burnside St Providence, RI 02905 $178,500 1,564 sq. ft. 3,049 sq. ft. $114
2019-09-16 Single Family Cape Cod 730 River Av Providence, RI 02908 $245,000 1,344 sq. ft. 3,485 sq. ft. $182
2019-09-15 Single Family Ranch 46 Kentland Av Providence, RI 02904 $224,150 1,134 sq. ft. 5,227 sq. ft. $198
2019-09-13 Single Family Bungalow; Tri-Level 109 Washington Av Providence, RI 02905 $229,000 1,536 sq. ft. 3,920 sq. ft. $149
2019-09-13 Single Family Cape Cod 410 Sharon St Providence, RI 02908 $199,900 1,739 sq. ft. 4,356 sq. ft. $115
2019-09-13 Single Family Cape Cod 186 California Av Providence, RI 02905 $239,900 1,707 sq. ft. 3,049 sq. ft. $141
2019-09-13 Single Family Colonial; Tudor 456 Eaton St Providence, RI 02908 $259,900 1,744 sq. ft. 3,485 sq. ft. $149
2019-09-12 Single Family Cape Cod 291 Sharon St Providence, RI 02908 $229,000 1,208 sq. ft. 4,792 sq. ft. $190
2019-09-12 Single Family Colonial; Cottage 85 Cemetery St Providence, RI 02904 $169,000 1,000 sq. ft. 0 sq. ft. $169
2019-09-12 Single Family Colonial 71 Farragut Av Providence, RI 02905 $239,000 1,794 sq. ft. 3,920 sq. ft. $133
2019-09-12 Single Family Ranch 37 Seamans St Providence, RI 02908 $215,000 1,162 sq. ft. 3,485 sq. ft. $185
2019-09-11 Single Family Colonial 47 Mendon St Providence, RI 02908 $314,900 1,612 sq. ft. 4,792 sq. ft. $195
2019-09-11 Single Family Bungalow 71 Wendell St Providence, RI 02909 $185,000 1,512 sq. ft. 3,049 sq. ft. $122
2019-09-11 Single Family Ranch 126 Edgeworth Av Providence, RI 02904 $199,000 956 sq. ft. 4,356 sq. ft. $208
2019-09-11 Single Family Ranch 6 Grape St Providence, RI 02908 $269,900 1,153 sq. ft. 7,405 sq. ft. $234
2019-09-11 Single Family Ranch 24 Jasper St Providence, RI 02904 $225,000 1,277 sq. ft. 6,534 sq. ft. $176
2019-09-11 Single Family Bungalow 55 Iona St Providence, RI 02908 $210,000 756 sq. ft. 3,049 sq. ft. $278
2019-09-11 Single Family Colonial 220 Roosevelt St Providence, RI 02909 $199,900 1,488 sq. ft. 4,792 sq. ft. $134
2019-09-11 Single Family Colonial 67 Sisson St Providence, RI 02909 $179,900 1,200 sq. ft. 5,227 sq. ft. $150
2019-09-10 Single Family Bungalow 32 Pomona Av Providence, RI 02908 $220,000 1,499 sq. ft. 3,920 sq. ft. $147
2019-09-10 Single Family Colonial 132 Warrington St Providence, RI 02907 $209,900 1,362 sq. ft. 4,792 sq. ft. $154
2019-09-10 Single Family Colonial 37 Homer St Providence, RI 02905 $194,900 1,344 sq. ft. 3,049 sq. ft. $145
2019-09-09 Single Family Colonial 201 New York Av Providence, RI 02905 $209,900 1,426 sq. ft. 3,485 sq. ft. $147
2019-09-09 Single Family Colonial 38 Dixon St Providence, RI 02907 $239,900 1,488 sq. ft. 3,920 sq. ft. $161
2019-09-09 Single Family Colonial 44 Winthrop Av Providence, RI 02908 $239,900 1,310 sq. ft. 4,792 sq. ft. $183
2019-09-09 Single Family Colonial 33 Corinth St Providence, RI 02907 $219,900 1,328 sq. ft. 5,227 sq. ft. $166
2019-09-09 Single Family Ranch 80 Manomet St Providence, RI 02909 $219,900 908 sq. ft. 3,920 sq. ft. $242
2019-09-09 Single Family Cottage 417 Eaton St Providence, RI 02908 $189,900 994 sq. ft. 4,792 sq. ft. $191
2019-09-09 Single Family Bungalow 128 Lynch St Providence, RI 02908 $175,000 1,196 sq. ft. 3,920 sq. ft. $146
2019-09-09 Single Family Bungalow 118 Swift St Providence, RI 02904 $164,000 1,248 sq. ft. 5,227 sq. ft. $131
2019-09-06 Single Family Bungalow; Cottage 170 Chad Brown St Providence, RI 02908 $185,000 946 sq. ft. 4,356 sq. ft. $196
2019-09-06 Single Family Colonial 77 Sisson St Providence, RI 02909 $299,900 1,600 sq. ft. 3,049 sq. ft. $187
2019-09-06 Single Family Ranch 12 Balmoral Av Providence, RI 02908 $175,000 600 sq. ft. 3,485 sq. ft. $292
2019-09-05 Single Family Raised Ranch 34 Danby St Providence, RI 02904 $284,900 1,092 sq. ft. 5,227 sq. ft. $261
2019-09-05 Single Family Bungalow 199 Ledge St Providence, RI 02904 $169,900 1,222 sq. ft. 4,792 sq. ft. $139
2019-09-05 Single Family Ranch 1 Togansett Rd Providence, RI 02910 $190,500 1,060 sq. ft. 3,920 sq. ft. $180
2019-09-04 Single Family Colonial 15 Joy St Providence, RI 02908 $399,900 2,204 sq. ft. 5,227 sq. ft. $181
2019-09-04 Single Family Ranch 9 Vaughan St Providence, RI 02904 $209,900 754 sq. ft. 4,356 sq. ft. $278
2019-09-03 Single Family Colonial 130 Salina St Providence, RI 02904 $204,900 1,378 sq. ft. 3,920 sq. ft. $149
2019-09-03 Single Family Bungalow 290 River Av Providence, RI 02908 $265,000 1,606 sq. ft. 4,792 sq. ft. $165
2019-09-03 Single Family Ranch 762 Academy Av Providence, RI 02908 $249,900 1,218 sq. ft. 3,920 sq. ft. $205
2019-09-03 Single Family Bungalow 160 Admiral St Providence, RI 02908 $160,000 968 sq. ft. 7,841 sq. ft. $165
2019-09-02 Single Family Cape Cod 36 Anchor St Providence, RI 02908 $195,000 1,442 sq. ft. 3,049 sq. ft. $135
2019-08-30 Single Family Colonial 159 Burnside St Providence, RI 02905 $197,900 1,254 sq. ft. 3,920 sq. ft. $158
2019-08-28 Single Family Colonial 24 Mount Vernon St Providence, RI 02907 $190,000 2,038 sq. ft. 3,485 sq. ft. $93
2019-08-28 Single Family Colonial 60 Health Av Providence, RI 02908 $190,000 1,560 sq. ft. 3,485 sq. ft. $122
2019-08-28 Single Family Bungalow 77 Fisk St Providence, RI 02905 $234,900 2,234 sq. ft. 3,049 sq. ft. $105
2019-08-28 Single Family Colonial; Contemporary 23 Annie St Providence, RI 02908 $319,000 1,560 sq. ft. 3,920 sq. ft. $204
2019-08-27 Single Family Cape Cod 740 Manton Av Providence, RI 02909 $179,900 1,364 sq. ft. 6,098 sq. ft. $132
2019-08-27 Single Family Bungalow 155 Early St Providence, RI 02907 $185,000 1,192 sq. ft. 3,049 sq. ft. $155
2019-08-26 Single Family Colonial 40 Arch St Providence, RI 02907 $220,000 1,320 sq. ft. 3,920 sq. ft. $167
2019-08-23 Single Family Bungalow 175 New York Av Providence, RI 02905 $215,000 1,595 sq. ft. 3,485 sq. ft. $135
2019-08-23 Single Family Colonial 117 Sandringham Av Providence, RI 02908 $289,500 2,040 sq. ft. 6,534 sq. ft. $142
2019-08-22 Single Family Colonial 11 View St Providence, RI 02908 $299,900 2,836 sq. ft. 0 sq. ft. $106
2019-08-22 Single Family Colonial 89 Sisson St Providence, RI 02909 $209,900 1,340 sq. ft. 6,098 sq. ft. $157
2019-08-21 Single Family Colonial 224 Sunburry St Providence, RI 02908 $269,000 1,800 sq. ft. 3,049 sq. ft. $149
2019-08-21 Single Family Colonial 52 Blaine St Providence, RI 02904 $259,000 1,728 sq. ft. 3,049 sq. ft. $150
2019-08-21 Single Family Colonial 34 Seabury St Providence, RI 02907 $119,900 1,200 sq. ft. 3,049 sq. ft. $100
2019-08-20 Single Family Colonial 160 Sharon St Providence, RI 02908 $299,900 1,517 sq. ft. 4,792 sq. ft. $198
2019-08-19 Single Family Cape Cod 102 Kentland Av Providence, RI 02908 $189,000 988 sq. ft. 5,227 sq. ft. $191
2019-08-19 Single Family Bungalow 50 Leo Av Providence, RI 02904 $159,900 928 sq. ft. 3,920 sq. ft. $172
2019-08-17 Single Family Ranch 22 Actinia St Providence, RI 02909 $220,000 1,192 sq. ft. 7,405 sq. ft. $185
2019-08-17 Single Family Bungalow 31 Greenwood St Providence, RI 02909 $149,000 1,048 sq. ft. 3,049 sq. ft. $142
2019-08-16 Single Family Bungalow 130 Sumter St Providence, RI 02907 $199,900 1,968 sq. ft. 3,920 sq. ft. $102
2019-08-16 Single Family Ranch 40 Barden St Providence, RI 02909 $105,000 1,000 sq. ft. 3,920 sq. ft. $105
2019-08-15 Single Family Ranch 187 Isabella Av Providence, RI 02908 $226,900 1,055 sq. ft. 4,356 sq. ft. $215
2019-08-15 Single Family Ranch 124 Sherwood St Providence, RI 02904 $199,900 1,008 sq. ft. 3,049 sq. ft. $198
2019-08-15 Single Family Ranch 19 Christopher St Providence, RI 02904 $200,000 960 sq. ft. 2,178 sq. ft. $208
2019-08-14 Single Family Colonial 68 Mercy St Providence, RI 02909 $259,900 1,920 sq. ft. 3,049 sq. ft. $135
2019-08-13 Single Family Ranch 177 Ortoleva Dr Providence, RI 02909 $219,900 1,185 sq. ft. 5,663 sq. ft. $186
2019-08-13 Single Family Ranch 9 Seamans St Providence, RI 02908 $202,500 1,276 sq. ft. 5,663 sq. ft. $159
2019-08-12 Single Family Colonial 42 12th St Providence, RI 02906 $414,000 1,380 sq. ft. 5,227 sq. ft. $300
2019-08-10 Single Family Colonial 165 Windmill St Providence, RI 02904 $299,000 2,000 sq. ft. 9,148 sq. ft. $150
2019-08-09 Single Family Cape Cod 25 Frederick St Providence, RI 02908 $230,000 1,222 sq. ft. 3,049 sq. ft. $188
2019-08-07 Single Family Ranch 15 Brentwood Av Providence, RI 02908 $299,000 3,156 sq. ft. 10,890 sq. ft. $95
2019-08-07 Single Family Cape Cod 70 Enfield Av Providence, RI 02908 $239,000 1,232 sq. ft. 11,326 sq. ft. $194
2019-08-06 Single Family Colonial 9 Rodman St Providence, RI 02907 $221,000 1,354 sq. ft. 4,792 sq. ft. $163
2019-08-05 Single Family 44 Belmont Av Providence, RI 02908 $239,900 2,017 sq. ft. 4,792 sq. ft. $119
2019-08-05 Single Family Bungalow; Cape Cod; Cottage 130 Wadsworth St Providence, RI 02907 $169,900 968 sq. ft. 2,178 sq. ft. $176
2019-08-05 Single Family Colonial 48 Grand St Providence, RI 02907 $165,900 1,021 sq. ft. 3,049 sq. ft. $162
2019-08-02 Single Family Cape Cod 140 Babcock St Providence, RI 02905 $199,900 1,300 sq. ft. 3,049 sq. ft. $154
2019-08-02 Single Family Ranch 235 Wallace St Providence, RI 02909 $209,900 1,006 sq. ft. 4,356 sq. ft. $209
2019-08-01 Single Family Cape Cod 41 Coggeshall St Providence, RI 02908 $199,900 951 sq. ft. 3,049 sq. ft. $210
2019-08-01 Single Family Ranch 45 Vaughan St Providence, RI 02904 $199,937 1,157 sq. ft. 6,970 sq. ft. $173
2019-07-30 Single Family Raised Ranch 20 Horton Av Providence, RI 02904 $217,000 1,008 sq. ft. 5,663 sq. ft. $215
2019-07-25 Single Family Bungalow 43 Grand St Providence, RI 02907 $189,900 1,030 sq. ft. 3,049 sq. ft. $184
2019-07-25 Single Family Cape Cod 30 Hanover St Providence, RI 02907 $180,000 1,613 sq. ft. 3,049 sq. ft. $112
2019-07-25 Single Family Bungalow 382 Mount Pleasant Av Providence, RI 02908 $130,000 1,453 sq. ft. 5,227 sq. ft. $89
2019-07-25 Single Family Ranch 113 Springfield St Providence, RI 02909 $179,000 960 sq. ft. 3,049 sq. ft. $186
2019-07-24 Single Family Ranch 375 Jastram St Providence, RI 02908 $155,000 910 sq. ft. 3,485 sq. ft. $170
2019-07-24 Single Family Colonial 53 Cathedral Av Providence, RI 02908 $349,000 2,224 sq. ft. 4,792 sq. ft. $157
2019-07-24 Single Family Raised Ranch 30 Neutaconkanut Rd Providence, RI 02909 $439,000 2,196 sq. ft. 9,583 sq. ft. $200
2019-07-24 Single Family 37 Longwood Av Providence, RI 02908 $289,900 1,806 sq. ft. 6,098 sq. ft. $161
2019-07-24 Single Family Colonial 96 Woodbine St Providence, RI 02906 $427,800 1,732 sq. ft. 4,356 sq. ft. $247
2019-07-24 Single Family Colonial 148 - 140 Merino St Providence, RI 02909 $229,900 1,920 sq. ft. 10,019 sq. ft. $120
2019-07-24 Single Family Colonial 98 Rutherglen Av Providence, RI 02907 $219,900 1,359 sq. ft. 4,792 sq. ft. $162
2019-07-24 Single Family 193 Early St Providence, RI 02907 $218,500 1,025 sq. ft. 3,049 sq. ft. $213
2019-07-24 Single Family Cape Cod 31 Naples Av Providence, RI 02908 $249,900 1,635 sq. ft. 3,920 sq. ft. $153
2019-07-24 Single Family Ranch 9 Huldah St Providence, RI 02909 $209,900 1,152 sq. ft. 3,049 sq. ft. $182
2019-07-24 Single Family Ranch 13 Huldah St Providence, RI 02909 $209,900 1,152 sq. ft. 3,049 sq. ft. $182
2019-07-24 Single Family Ranch 41 Enfield Av Providence, RI 02908 $247,000 1,144 sq. ft. 3,485 sq. ft. $216
2019-07-24 Single Family Colonial 32 La Salle Dr Providence, RI 02908 $209,000 1,500 sq. ft. 4,356 sq. ft. $139
2019-07-24 Single Family 24 Callan St Providence, RI 02908 $249,000 1,248 sq. ft. 3,920 sq. ft. $200
2019-07-24 Single Family Colonial 158 Burnside St Providence, RI 02905 $179,000 2,033 sq. ft. 3,920 sq. ft. $88
2019-07-24 Single Family Ranch 8 Horace St Providence, RI 02909 $239,900 1,000 sq. ft. 6,098 sq. ft. $240
2019-07-24 Single Family Raised Ranch 140 Chatham St Providence, RI 02904 $219,900 1,008 sq. ft. 3,049 sq. ft. $218
2019-07-24 Single Family Colonial 40 Victoria St Providence, RI 02909 $290,000 2,413 sq. ft. 6,534 sq. ft. $120
2019-07-24 Single Family Cape Cod; Contemporary 521 River Av Providence, RI 02908 $269,900 3,240 sq. ft. 11,326 sq. ft. $83
2019-07-24 Single Family Bungalow 56 Russo St Providence, RI 02904 $179,900 1,581 sq. ft. 3,049 sq. ft. $114
2019-07-24 Single Family Cape Cod 39 Brightwood Av Providence, RI 02908 $229,500 1,641 sq. ft. 9,148 sq. ft. $140
2019-07-24 Single Family Colonial 57 Babcock St Providence, RI 02905 $229,900 1,570 sq. ft. 3,049 sq. ft. $146
2019-07-24 Single Family Raised Ranch 63 Lynde St Providence, RI 02908 $249,900 1,136 sq. ft. 6,534 sq. ft. $220
2019-07-24 Single Family Ranch 201 Unit St Providence, RI 02908 $229,900 1,050 sq. ft. 4,792 sq. ft. $219
2019-07-24 Single Family Bungalow 1159 Smith St Providence, RI 02908 $234,900 1,224 sq. ft. 4,356 sq. ft. $192
2019-07-24 Single Family Bungalow; Cottage 31 Brockton St Providence, RI 02904 $230,000 1,284 sq. ft. 3,485 sq. ft. $179
2019-07-24 Single Family Cottage 34 Sassafras St Providence, RI 02905 $199,900 960 sq. ft. 1,742 sq. ft. $208
2019-07-24 Single Family Ranch 93 Lubec St Providence, RI 02904 $147,000 1,050 sq. ft. 4,792 sq. ft. $140
2019-07-24 Single Family Ranch 669 Manton Av Providence, RI 02909 $164,900 1,008 sq. ft. 3,049 sq. ft. $164
2019-07-24 Single Family Colonial 831 Charles St Providence, RI 02904 $168,500 1,269 sq. ft. 4,356 sq. ft. $133
2019-07-24 Single Family Bungalow; Ranch 27 Hawkins St Providence, RI 02908 $175,000 818 sq. ft. 7,841 sq. ft. $214
2019-07-24 Single Family Ranch 49 Raymond St Providence, RI 02908 $155,000 988 sq. ft. 4,792 sq. ft. $157
2019-07-24 Single Family Colonial 115 Pocasset Av Providence, RI 02909 $175,000 2,046 sq. ft. 4,792 sq. ft. $86
2019-05-10 Single Family Bungalow; Cottage 125 Elmdale Av Providence, RI 02909 $189,900 864 sq. ft. 4,792 sq. ft. $220
2019-05-08 Single Family Bungalow 132 Fisk St Providence, RI 02905 $188,500 1,198 sq. ft. 3,049 sq. ft. $157
2019-05-06 Single Family Bungalow 100 Miller Av Providence, RI 02905 $129,000 946 sq. ft. 4,792 sq. ft. $136
2019-05-02 Single Family Cape Cod 51 Fillmore St Providence, RI 02908 $110,000 907 sq. ft. 1,307 sq. ft. $121
2019-04-16 Single Family Colonial 21 Vaughan St Providence, RI 02904 $199,900 1,250 sq. ft. 3,485 sq. ft. $160
2019-04-09 Single Family Raised Ranch 107 Harriet St Providence, RI 02905 $130,000 968 sq. ft. 3,049 sq. ft. $134
2019-04-08 Single Family 239 Pavilion Av Providence, RI 02905 $159,900 1,440 sq. ft. 3,049 sq. ft. $111
2019-04-05 Single Family Cape Cod 42 Legion Memorial Dr Providence, RI 02909 $299,900 2,252 sq. ft. 7,405 sq. ft. $133
2019-03-21 Single Family Cape Cod 73 Camden Av Providence, RI 02908 $169,900 786 sq. ft. 3,049 sq. ft. $216
2019-03-14 Single Family Colonial 30 Woodman St Providence, RI 02907 $229,999 1,440 sq. ft. 3,049 sq. ft. $160
2019-03-04 Single Family Bungalow 131 Carr St Providence, RI 02905 $234,999 1,710 sq. ft. 3,049 sq. ft. $137
2019-02-28 Single Family Bungalow 177 Cleveland St Providence, RI 02909 $169,900 1,198 sq. ft. 3,920 sq. ft. $142
2019-01-21 Single Family Historic; Victorian 234 Lenox Av Providence, RI 02907 $214,000 3,835 sq. ft. 10,019 sq. ft. $56
2019-01-07 Single Family Bungalow 29 Mount Pleasant Av Providence, RI 02908 $79,900 1,296 sq. ft. 3,920 sq. ft. $62
2018-11-23 Single Family Colonial Providence, RI $170,000 1,080 sq. ft. 4,356 sq. ft. $157
2018-11-01 Single Family 95 Providence St Providence, RI 02907 $180,000 1,620 sq. ft. 4,792 sq. ft. $111
2018-10-21 Single Family Cottage 9 Sawyer St Providence, RI 02907 $250,000 1,400 sq. ft. 5,227 sq. ft. $179
2018-10-14 Single Family Bungalow 87 Terrace Av Providence, RI 02909 $159,900 1,300 sq. ft. 3,049 sq. ft. $123
2018-10-13 Single Family Cape Cod 87 Jastram St Providence, RI 02908 $269,900 1,401 sq. ft. 4,792 sq. ft. $193
2018-10-11 Single Family Colonial 19 Basswood Av Providence, RI 02908 $269,900 2,036 sq. ft. 5,227 sq. ft. $133
2018-09-02 Single Family Ranch 113 Lubec St Providence, RI 02904 $179,900 1,004 sq. ft. 3,049 sq. ft. $179
2018-08-14 Single Family Raised Ranch 973 Douglas Av Providence, RI 02908 $269,900 1,288 sq. ft. 4,792 sq. ft. $210
2018-08-06 Single Family Raised Ranch 776 Mount Pleasant Av Providence, RI 02908 $274,000 1,400 sq. ft. 8,276 sq. ft. $196
2018-06-29 Single Family Colonial 558 Pleasant Valley Pkwy Providence, RI 02908 $274,900 2,644 sq. ft. 13,068 sq. ft. $104
2018-06-06 Single Family Bungalow 176 Jastram St Providence, RI 02908 $234,900 1,200 sq. ft. 4,792 sq. ft. $196
2018-05-08 Single Family Ranch 1 Ralston St Providence, RI 02904 $248,000 1,136 sq. ft. 7,405 sq. ft. $218
2018-03-21 Single Family Cottage; Victorian 183 Alabama Av Providence, RI 02905 $239,900 1,200 sq. ft. 6,534 sq. ft. $200
2018-03-17 Single Family Bungalow 222 Sterling Av Providence, RI 02909 $159,900 1,230 sq. ft. 3,920 sq. ft. $130
2017-10-21 Single Family Colonial 9 Applegate Lane Providence, RI 02905 $184,900 1,386 sq. ft. 2,614 sq. ft. $133
2017-09-13 Single Family Colonial; Cottage 69 - 61,71 Thornton St Providence, RI 02909 $190,000 1,636 sq. ft. 8,276 sq. ft. $116
2017-09-11 Single Family Cottage 52 Borinquen St Providence, RI 02905 $129,900 1,266 sq. ft. 7,405 sq. ft. $103
2017-08-24 Single Family Ranch 19 Bassi Lane Providence, RI 02909 $219,900 1,712 sq. ft. 13,068 sq. ft. $128
2017-08-14 Single Family Victorian 68 Pitman St Providence, RI 02906 $399,000 1,119 sq. ft. 7,841 sq. ft. $357
2017-07-06 Single Family Ranch 9 Evelyn St Providence, RI 02909 $189,000 1,056 sq. ft. 6,970 sq. ft. $179
2017-06-26 Single Family Bungalow 263 California Av Providence, RI 02905 $139,900 1,508 sq. ft. 3,049 sq. ft. $93
2017-05-20 Single Family Split Level 86 Erie St Providence, RI 02908 $289,900 1,387 sq. ft. 6,098 sq. ft. $209
2017-05-03 Single Family Ranch 24 Brockton St Providence, RI 02904 $179,000 1,258 sq. ft. 6,534 sq. ft. $142
2017-03-30 Single Family Victorian 137 Wallace St Providence, RI 02909 $199,900 2,346 sq. ft. 3,920 sq. ft. $85
2017-03-28 Single Family Colonial 23 Annie St Providence, RI 02908 $279,900 1,560 sq. ft. 3,920 sq. ft. $179
2017-03-27 Single Family Bungalow 126 Washington Av Providence, RI 02905 $119,900 840 sq. ft. 3,485 sq. ft. $143
2017-03-15 Single Family Contemporary 92 Seamans St Providence, RI 02908 $199,000 1,082 sq. ft. 8,276 sq. ft. $184
2017-03-07 Single Family Colonial 122 Laban St Providence, RI 02909 $249,900 1,768 sq. ft. 10,019 sq. ft. $141